CZ-6A DEB

Satellite information

Favourite Embed

Satellite Type and Status

DEBRISIN ORBIT

Key statistics

Satellite CZ-6A DEB at a glance.

Uptime

1030

Days in orbit

Revolutions

≈ 14.5

Per day

Orbit

SSO

Sun Synchronous Orbit

Inclination

98.5

Latest

Satellite identification and parameters

Extended collection of information and parameters for CZ-6A DEB.

Object identification

Identified? True

Debris? True

Object name: CZ-6A DEB

International designator: 2022-151ACF

Object number (NORAD): 56263

Object ID (CCSDS): 56263

Country: PEOPLES REPUBLIC OF CHINA (PRC)

Current information (Y/N): Y

RCS size: SMALL

Orbital parameters

Period: 99.181 minutes

Inclination: 98.5342 deg

SMA: 7097.619 km

Apoapsis: 805.796 km

Periapsis: 633.171 km

RAAN: 281.8895 deg

Eccentricy: 0.01216077

Argument of periapsis: 61.6468 deg

Mean anomaly: 299.6928 deg

Mean motion: 14.51890216 rev/day

Mean motion (dot): 0.0000344 rev/day2

B* drag term: 0.00078646909 1/REarth

Two-line elements (TLE)

Creation date: Sept. 6, 2025, 2:09 a.m.

Reference frame: TEME

Reference center: EARTH

Epoch: Sept. 5, 2025, 7:57 p.m. UTC

TLE line 0: 0 CZ-6A DEB

TLE line 1: 1 56263U 22151ACF 25248.83153927 .00003440 00000-0 78647-3 0 9998

TLE line 2: 2 56263 98.5342 281.8895 0121608 61.6468 299.6928 14.51890216130281

Live tracking on map

Real-time ground track for satellite CZ-6A DEB.

In-orbit conjunctions

A list of the most updated potential collisions computed for object CZ-6A DEB.

Target Orbit TCA Probability of collision Miss distance Type
CZ-6A DEB SSO 2024-07-06 12:46:49 0.0001612368 531.0 (m) DEBRIS

Associated space launch

Chinese satellite reported for atmospheric/ocean/environmental/spatial parameter research purposes, details TBD.

CZ-6A DEB was lifted into orbit during the mission ‘Long March 6A | Yunhai 3’, on board a Long March 6A space rocket.

The launch took place on Nov. 11, 2022, 10:52 p.m. from Launch Complex 9A.

For more information about the launch, click the button.

Launch to space Long March 6A | Yunhai 3
Long March 6A | Yunhai 3

Agency: N/A

Status: Launch Successful

Launch date: Nov. 11, 2022, 10:52 p.m. UTC

Rocket: Long March 6A

Launch pad: Launch Complex 9A

Location: Taiyuan Satellite Launch Center, People's Republic of China

...

Latest news about this satellite

There are no fresh news available about this satellite. Check back as we update our databases every day.


Newsletter sign-up

Weekly statistics, charts and insights to help you stay on top of the space industry.